Tracking 28790 objects as of 19-Apr-2024
HD Live streaming from Space Station
objects crossing your sky now

SL-12 R/B(2)

Track SL-12 R/B(2) now!


NORAD ID: 26557
Int'l Code: 2000-059D
Perigee: 7,094.2 km
Apogee: 35,895.0 km
Inclination: 13.7 °
Period: 771.5 minutes
Semi major axis: 27865 km
RCS: 24.2849 m2 (large)
Launch date: October 1, 2000
Source: Commonwealth of Independent States (former USSR) (CIS)
Launch site: TYURATAM MISSILE AND SPACE COMPLEX (TTMTR)

Note: This is a ROCKET BODY
Your satellite tracking list
Your tracking list is empty




NASA's NSSDC Master Catalog

Two Line Element Set (TLE):
1 26557U 00059D   24109.75800247 -.00000084  00000-0  00000-0 0  9991
2 26557  13.6642 162.6288 5167793 267.9289  29.8620  1.86637863160522
Source of the keplerian elements: AFSPC